User: anonymous   Login
Location: Raven Hill Discovery Center
(45.1336°N, 85.0553°W)
Time: 09:51:52
(UTC-04:00)
Language:

Cosmos 1470 - Orbit

View from above orbital plane
View from above orbital plane
View from above satellite
View from above satellite

Ground track
Ground track

The orbit data is extracted from the following two-line orbital elements,

1 14147U 83061A   15146.32627042  .00000994  00000-0  60785-4 0  9990
2 14147 082.5027 057.4952 0014080 331.6196 028.4264 15.09063500491208
Epoch (UTC): 26 May 2015 07:49:49
Eccentricity: 0.0014080
inclination: 82.5027°
perigee height: 529 km
apogee height: 549 km
right ascension of ascending node: 57.4952°
argument of perigee: 331.6196°
revolutions per day: 15.09063500
mean anomaly at epoch: 28.4264°
orbit number at epoch: 49120

The dashed part of the orbit path shows where the satellite is in the earth's shadow,  

DLR